Main page
METAR-TAF:

METAR-TAF

Airports :

Comanche County–City Airport

Comanche, Texas, United States

latitude: 31-55N, longitude: 098-36-01W, elevation: 1387 ft

Current weather observation

The report was made 42 minutes ago, at 12:35 UTC
Wind 13 mph from the South/Southeast
Temperature 77°F
Humidity 89%
Pressure 29.84 in. Hg
Visibility: 10 miles
Clear sky

METAR: KMKN 171235Z AUTO 16011KT 10SM CLR 25/23 A2984 RMK AO2 T02500226

Time: 08:17 (13:17 UTC)


TAF: missing

Weather observations and forecasts of more than 4000 airports (METAR and TAF reports).

The available stations are represented by yellow and red dots on the map.

Hover mouse over dot to see the name of the station.

Then click to see weather observations and forecasts.

To change the map : click on the green buttons with a black cross to zoom in, on the green button with a dash to zoom out, or on the green arrows for adjacent maps.


METAR-TAF: